User: anonymous   Login
Location: Baumgarten
(49.0970°N, 12.7493°E)
Time: 23:47:14
(UTC+00:00)
Language:

COSMOS 2455 - Orbit

View from above orbital plane
View from above orbital plane
View from above satellite
View from above satellite

Ground track
Ground track

The orbit data is extracted from the following two-line orbital elements,

1 36095U 09063A   20275.74497946 -.00000034  00000-0  29455-4 0  9994
2 36095  67.1464 280.7621 0009097 265.4582  94.5464 13.96771176554190
Epoch (UTC): 01 October 2020 17:52:46
Eccentricity: 0.0009097
inclination: 67.1464°
perigee height: 898 km
apogee height: 911 km
right ascension of ascending node: 280.7621°
argument of perigee: 265.4582°
revolutions per day: 13.96771176
mean anomaly at epoch: 94.5464°
orbit number at epoch: 55419

The dashed part of the orbit path shows where the satellite is in the earth's shadow,  

DLR